Tracking 25612 objects as of 20-May-2022
HD Live streaming from Space Station
objects crossing your sky now

COSMOS 2251 DEB

Track COSMOS 2251 DEB now!
10-day predictions


NORAD ID: 35039
Int'l Code: 1993-036AHC
Perigee: 621.4 km
Apogee: 657.1 km
Inclination: 74.0 °
Period: 97.4 minutes
Semi major axis: 7010 km
RCS: 0.0039 m2 (small)
Launch date: June 16, 1993
Source: Commonwealth of Independent States (former USSR) (CIS)
Launch site: PLESETSK MISSILE AND SPACE COMPLEX (PKMTR)

Note: This is SATELLITE DEBRIS
aabbcc
Your satellite tracking list
Your tracking list is empty




NASA's NSSDC Master Catalog

Two Line Element Set (TLE):
1 35039U 93036AHC 22138.54510852  .00032369  00000-0  43291-2 0  9991
2 35039  74.0117 207.5423 0025514 252.5166 107.3221 14.79113442527892
Source of the keplerian elements: AFSPC